• In Germany
  • List of Countries
  • For 7 days
  • Water Temperature
  • Satellite Maps
  • Weather Map
  • Weather Widgets
  • user-avatar
    Login

    Hourly Weather Nakhchivan

    Today, 27 March, Monday

    Time Temperature Precipitation Wind Pressure Humidity
    00:00 +8°C° 0 mm 2 mps 687 mmHg 49%
    01:00 +7°C° 0 mm 2 mps 687 mmHg 50%
    02:00 +7°C° 0 mm 2 mps 686 mmHg 51%
    03:00 +8°C° 0 mm 1 mps 685 mmHg 56%
    04:00 +7°C° 0 mm 2 mps 685 mmHg 58%
    05:00 +7°C° 0 mm 2 mps 685 mmHg 59%
    06:00 +6°C° 0 mm 2 mps 686 mmHg 60%
    07:00 +8°C° 0 mm 2 mps 686 mmHg 56%
    08:00 +10°C° 0 mm 2 mps 686 mmHg 52%
    09:00 +13°C° 0 mm 2 mps 686 mmHg 48%
    10:00 +14°C° 0 mm 2 mps 686 mmHg 45%
    11:00 +15°C° 0 mm 2 mps 686 mmHg 43%
    12:00 +16°C° 0 mm 3 mps 686 mmHg 40%
    13:00 +17°C° 0 mm 3 mps 685 mmHg 39%
    14:00 +17°C° 0 mm 3 mps 685 mmHg 38%
    15:00 +17°C° 0 mm 4 mps 684 mmHg 37%
    16:00 +16°C° 0 mm 3 mps 684 mmHg 40%
    17:00 +15°C° 0 mm 2 mps 684 mmHg 43%
    18:00 +14°C° 0 mm 2 mps 684 mmHg 46%
    19:00 +13°C° 0 mm 2 mps 684 mmHg 49%
    20:00 +12°C° 0 mm 2 mps 685 mmHg 52%
    21:00 +10°C° 0 mm 2 mps 685 mmHg 55%
    22:00 +10°C° 0 mm 2 mps 685 mmHg 56%
    23:00 +9°C° 0 mm 2 mps 684 mmHg 56%

    Tomorrow, 28 March, Tuesday

    Time Temperature Precipitation Wind Pressure Humidity
    00:00 +9°C° 0 mm 2 mps 684 mmHg 57%
    01:00 +9°C° 0 mm 2 mps 684 mmHg 58%
    02:00 +8°C° 0 mm 2 mps 684 mmHg 59%
    03:00 +8°C° 0 mm 2 mps 684 mmHg 61%
    04:00 +8°C° 0 mm 2 mps 684 mmHg 62%
    05:00 +8°C° 0 mm 2 mps 684 mmHg 63%
    06:00 +8°C° 0 mm 2 mps 684 mmHg 65%
    07:00 +9°C° 0.1 mm 2 mps 684 mmHg 61%
    08:00 +10°C° 0.1 mm 2 mps 684 mmHg 57%
    09:00 +12°C° 0.1 mm 2 mps 684 mmHg 54%
    10:00 +14°C° 0.1 mm 2 mps 685 mmHg 50%
    11:00 +15°C° 0.1 mm 2 mps 685 mmHg 47%
    12:00 +16°C° 0.1 mm 2 mps 685 mmHg 43%
    13:00 +16°C° 0.2 mm 2 mps 685 mmHg 43%
    14:00 +17°C° 0.2 mm 2 mps 685 mmHg 42%
    15:00 +17°C° 0.2 mm 2 mps 684 mmHg 41%
    16:00 +16°C° 0.3 mm 2 mps 685 mmHg 45%
    17:00 +15°C° 0.3 mm 2 mps 685 mmHg 49%
    18:00 +14°C° 0.3 mm 1 mps 685 mmHg 53%
    19:00 +13°C° 0.1 mm 1 mps 685 mmHg 56%
    20:00 +12°C° 0.1 mm 1 mps 686 mmHg 59%
    21:00 +11°C° 0.1 mm 1 mps 686 mmHg 62%
    22:00 +11°C° 0 mm 1 mps 686 mmHg 63%
    23:00 +10°C° 0 mm 1 mps 686 mmHg 64%

    Day after tomorrow, 29 March, Wednesday

    Time Temperature Precipitation Wind Pressure Humidity
    00:00 +10°C° 0 mm 1 mps 686 mmHg 65%
    01:00 +10°C° 0 mm 1 mps 686 mmHg 66%
    02:00 +9°C° 0 mm 1 mps 686 mmHg 67%
    03:00 +9°C° 0 mm 1 mps 686 mmHg 68%
    04:00 +8°C° 0 mm 1 mps 686 mmHg 69%
    05:00 +8°C° 0 mm 1 mps 686 mmHg 70%
    06:00 +8°C° 0 mm 1 mps 686 mmHg 72%
    07:00 +9°C° 0 mm 1 mps 686 mmHg 66%
    08:00 +10°C° 0 mm 1 mps 687 mmHg 61%
    09:00 +12°C° 0 mm 1 mps 687 mmHg 56%
    10:00 +13°C° 0 mm 1 mps 687 mmHg 53%
    11:00 +14°C° 0 mm 2 mps 687 mmHg 50%
    12:00 +15°C° 0 mm 2 mps 687 mmHg 46%
    13:00 +15°C° 0 mm 2 mps 687 mmHg 44%
    14:00 +16°C° 0 mm 2 mps 687 mmHg 43%
    15:00 +16°C° 0 mm 2 mps 687 mmHg 41%
    16:00 +15°C° 0 mm 2 mps 687 mmHg 43%
    17:00 +15°C° 0 mm 2 mps 687 mmHg 46%
    18:00 +14°C° 0 mm 2 mps 687 mmHg 48%
    19:00 +13°C° 0 mm 1 mps 688 mmHg 52%
    20:00 +12°C° 0 mm 1 mps 688 mmHg 55%
    21:00 +11°C° 0 mm 1 mps 689 mmHg 58%
    22:00 +10°C° 0 mm 1 mps 689 mmHg 58%
    23:00 +10°C° 0 mm 1 mps 689 mmHg 59%

    30 March, Thursday

    Time Temperature Precipitation Wind Pressure Humidity
    00:00 +9°C° 0 mm 1 mps 689 mmHg 60%
    01:00 +9°C° 0 mm 1 mps 689 mmHg 61%
    02:00 +8°C° 0 mm 1 mps 689 mmHg 62%
    03:00 +8°C° 0 mm 1 mps 689 mmHg 62%
    04:00 +7°C° 0 mm 1 mps 689 mmHg 63%
    05:00 +7°C° 0 mm 1 mps 689 mmHg 64%
    06:00 +7°C° 0 mm 1 mps 689 mmHg 64%
    07:00 +9°C° 0 mm 1 mps 689 mmHg 57%
    08:00 +11°C° 0 mm 1 mps 690 mmHg 50%
    09:00 +12°C° 0 mm 0 mps 690 mmHg 43%
    10:00 +14°C° 0 mm 1 mps 690 mmHg 41%
    11:00 +15°C° 0 mm 1 mps 689 mmHg 38%
    12:00 +16°C° 0 mm 1 mps 689 mmHg 36%
    13:00 +18°C° 0 mm 1 mps 689 mmHg 34%
    14:00 +18°C° 0 mm 1 mps 688 mmHg 32%
    15:00 +19°C° 0 mm 1 mps 688 mmHg 30%
    16:00 +18°C° 0 mm 1 mps 688 mmHg 33%
    17:00 +16°C° 0 mm 1 mps 687 mmHg 36%
    18:00 +15°C° 0 mm 1 mps 687 mmHg 39%
    19:00 +14°C° 0 mm 1 mps 688 mmHg 41%
    20:00 +13°C° 0 mm 2 mps 688 mmHg 43%
    21:00 +12°C° 0 mm 2 mps 688 mmHg 45%
    22:00 +10°C° 0 mm 2 mps 688 mmHg 46%
    23:00 +10°C° 0 mm 2 mps 687 mmHg 47%

    31 March, Friday

    Time Temperature Precipitation Wind Pressure Humidity
    00:00 +9°C° 0 mm 2 mps 687 mmHg 49%
    01:00 +10°C° 0 mm 1 mps 687 mmHg 50%
    02:00 +10°C° 0 mm 1 mps 686 mmHg 52%
    03:00 +9°C° 0 mm 1 mps 686 mmHg 53%
    04:00 +9°C° 0 mm 1 mps 686 mmHg 54%
    05:00 +9°C° 0 mm 1 mps 686 mmHg 55%
    06:00 +9°C° 0 mm 1 mps 685 mmHg 55%
    07:00 +10°C° 0.1 mm 1 mps 686 mmHg 52%
    08:00 +12°C° 0.1 mm 1 mps 686 mmHg 49%
    09:00 +13°C° 0.1 mm 1 mps 686 mmHg 45%
    10:00 +14°C° 0 mm 1 mps 686 mmHg 43%
    11:00 +16°C° 0 mm 1 mps 686 mmHg 40%
    12:00 +17°C° 0 mm 2 mps 686 mmHg 38%
    13:00 +18°C° 0 mm 1 mps 685 mmHg 37%
    14:00 +19°C° 0 mm 1 mps 685 mmHg 37%
    15:00 +19°C° 0 mm 1 mps 685 mmHg 37%
    16:00 +18°C° 0 mm 1 mps 685 mmHg 40%
    17:00 +18°C° 0 mm 1 mps 685 mmHg 44%
    18:00 +16°C° 0 mm 2 mps 685 mmHg 47%
    19:00 +15°C° 0.3 mm 2 mps 686 mmHg 52%
    20:00 +14°C° 0.3 mm 2 mps 686 mmHg 58%
    21:00 +13°C° 0.3 mm 2 mps 686 mmHg 63%
    22:00 +13°C° 0.5 mm 2 mps 686 mmHg 66%
    23:00 +12°C° 0.5 mm 1 mps 686 mmHg 69%

    1 April, Saturday

    Time Temperature Precipitation Wind Pressure Humidity
    00:00 +12°C° 0.5 mm 1 mps 686 mmHg 73%
    01:00 +11°C° 0.1 mm 1 mps 686 mmHg 74%
    02:00 +11°C° 0.1 mm 1 mps 686 mmHg 75%
    03:00 +11°C° 0.1 mm 1 mps 686 mmHg 76%
    04:00 +10°C° 0.7 mm 1 mps 686 mmHg 78%
    05:00 +10°C° 0.7 mm 1 mps 686 mmHg 79%
    06:00 +10°C° 0.7 mm 1 mps 686 mmHg 81%
    07:00 +10°C° 1.1 mm 1 mps 686 mmHg 80%
    08:00 +9°C° 1.1 mm 2 mps 686 mmHg 79%
    09:00 +9°C° 1.1 mm 2 mps 686 mmHg 78%
    10:00 +10°C° 0.2 mm 2 mps 686 mmHg 72%
    11:00 +13°C° 0.2 mm 2 mps 686 mmHg 67%
    12:00 +13°C° 0.2 mm 3 mps 686 mmHg 61%
    13:00 +14°C° 0.2 mm 2 mps 686 mmHg 61%
    14:00 +14°C° 0.2 mm 2 mps 685 mmHg 60%
    15:00 +14°C° 0.2 mm 2 mps 684 mmHg 60%
    16:00 +14°C° 0.1 mm 2 mps 684 mmHg 62%
    17:00 +12°C° 0.1 mm 3 mps 684 mmHg 65%
    18:00 +12°C° 0.1 mm 3 mps 683 mmHg 67%
    19:00 +11°C° 0.8 mm 3 mps 683 mmHg 71%
    20:00 +10°C° 0.8 mm 2 mps 684 mmHg 75%
    21:00 +9°C° 0.8 mm 2 mps 684 mmHg 79%
    22:00 +9°C° 0.1 mm 2 mps 684 mmHg 78%
    23:00 +9°C° 0.1 mm 2 mps 684 mmHg 77%
    Show more